contact:dominique.lefevre@mio.osupytheas.fr, maurice.libes@osupytheas.fr, didier.mallarino@osupytheas.fr
Project:EMSO http://www.emso-fr.org/EMSO-France
Depth: 2436.0 m
Title:EMSO Ligure Ouest : Data MII capteur AQUADOPP
Date,Latitude,Longitude,X_East,Y_North,Z_Up,Amplitude_X,Amplitude_Y,Amplitude_Z,Batterie,SoundSpeed,Heading,Pitch,Roll,Pressure,TIS,Speed,Direction
, degrees North, degrees East, m.s-1, m.s-1,m.s-1, 1, 1, 1, Volt, m.s-1, degree, degree, degree, dbar, degree_C, m.s-1, degree
2022-04-05T10:04:02,42.805,6.029,-0.026,-0.024,-0.034,102.0,101.0,102.0,13.4,1505.2,324.8,-0.8,1.8,2470.628,13.28,0.035,227.3
2022-04-05T10:07:03,42.805,6.029,-0.022,-0.003,-0.003,105.0,105.0,102.0,13.3,1505.2,326.9,-0.7,1.9,2470.569,13.28,0.022,262.2
2022-04-05T10:10:03,42.805,6.029,-0.035,-0.018,-0.052,115.0,117.0,104.0,13.4,1505.2,328.9,-0.8,1.8,2470.484,13.28,0.039,242.8
2022-04-05T10:13:03,42.805,6.029,-0.017,-0.002,-0.028,118.0,105.0,111.0,13.4,1505.2,327.2,-0.8,1.8,2470.469,13.28,0.017,263.3
2022-04-05T10:16:03,42.805,6.029,-0.014,-0.001,-0.026,115.0,106.0,108.0,13.3,1505.2,328.1,-0.8,1.8,2470.402,13.28,0.014,265.9
2022-04-05T10:19:03,42.805,6.029,-0.012,-0.023,0.002,118.0,121.0,108.0,13.4,1505.2,324.8,-0.8,1.8,2470.444,13.29,0.025,207.6
2022-04-05T10:22:03,42.805,6.029,0.007,-0.017,-0.016,127.0,120.0,117.0,13.4,1505.2,326.2,-0.7,1.8,2470.378,13.29,0.018,157.6
2022-04-05T10:25:03,42.805,6.029,-0.025,-0.01,-0.041,111.0,110.0,113.0,13.3,1505.2,327.3,-0.7,1.8,2470.354,13.29,0.026,248.2
2022-04-05T10:28:03,42.805,6.029,0.002,0.014,0.018,119.0,118.0,113.0,13.4,1505.2,332.4,-0.8,1.8,2470.331,13.29,0.014,8.1
2022-04-05T10:31:03,42.805,6.029,-0.025,-0.009,0.006,124.0,143.0,119.0,13.4,1505.2,322.3,-0.8,1.8,2470.274,13.29,0.026,250.2
2022-04-05T10:34:03,42.805,6.029,0.002,-0.012,-0.025,125.0,131.0,135.0,13.4,1505.2,329.4,-0.7,1.8,2470.28,13.29,0.012,170.5
2022-04-05T10:37:03,42.805,6.029,-0.014,-0.009,-0.028,120.0,122.0,124.0,13.4,1505.2,326.5,-0.8,1.8,2470.232,13.29,0.016,237.3
2022-04-05T10:40:03,42.805,6.029,0.002,-0.012,0.03,139.0,134.0,124.0,13.4,1505.2,326.0,-0.7,1.8,2470.29,13.29,0.012,170.5
2022-04-05T10:43:03,42.805,6.029,-0.029,-0.024,-0.02,132.0,143.0,130.0,13.4,1505.2,327.4,-0.8,1.8,2470.252,13.29,0.037,230.4
2022-04-05T10:46:03,42.805,6.029,-0.016,-0.021,0.01,141.0,140.0,135.0,13.4,1505.2,329.3,-0.7,1.8,2470.259,13.29,0.026,217.3
2022-04-05T10:49:03,42.805,6.029,0.0,0.015,-0.025,139.0,136.0,128.0,13.4,1505.2,327.6,-0.7,1.8,2470.283,13.29,0.015,0.0
2022-04-05T10:52:03,42.805,6.029,-0.003,0.0,-0.015,124.0,131.0,123.0,13.4,1505.2,326.0,-0.8,1.8,2470.314,13.29,0.003,270.0
2022-04-05T10:55:03,42.805,6.029,0.009,-0.004,-0.007,128.0,128.0,118.0,13.4,1505.2,328.1,-0.8,1.8,2470.36,13.29,0.009,114.0
2022-04-05T10:58:03,42.805,6.029,0.007,-0.013,0.0,130.0,131.0,124.0,13.4,1505.2,327.5,-0.7,1.8,2470.438,13.29,0.014,151.7
2022-04-05T11:04:03,42.805,6.029,-0.002,-0.022,0.024,136.0,135.0,126.0,13.4,1505.2,327.4,-0.8,1.8,2470.154,13.28,0.022,185.2
2022-04-05T11:07:03,42.805,6.029,0.006,-0.033,-0.014,134.0,136.0,128.0,13.4,1505.2,325.6,-0.7,1.8,2470.217,13.28,0.033,169.7
2022-04-05T11:10:03,42.805,6.029,0.001,-0.007,0.006,135.0,132.0,130.0,13.4,1505.2,326.1,-0.7,1.8,2470.355,13.29,0.007,171.9
2022-04-05T11:13:03,42.805,6.029,-0.015,-0.008,0.014,130.0,133.0,127.0,13.4,1505.2,325.9,-0.8,1.8,2470.607,13.29,0.017,241.9
2022-04-05T11:16:03,42.805,6.029,0.005,0.006,-0.039,129.0,134.0,131.0,13.4,1505.2,329.0,-0.8,1.8,2470.724,13.29,0.007,39.8
2022-04-05T11:19:03,42.805,6.029,0.012,0.003,0.007,129.0,134.0,128.0,13.3,1505.2,332.9,-0.7,1.8,2470.874,13.29,0.012,76.0
2022-04-05T11:22:03,42.805,6.029,0.005,0.001,-0.001,130.0,124.0,126.0,13.4,1505.2,329.2,-0.8,1.8,2470.898,13.29,0.005,78.7
2022-04-05T11:25:03,42.805,6.029,-0.033,0.0,-0.002,113.0,116.0,120.0,13.4,1505.2,329.6,-0.8,1.9,2471.081,13.29,0.033,270.0
2022-04-05T11:28:03,42.805,6.029,-0.02,0.002,0.017,107.0,114.0,120.0,13.4,1505.2,330.0,-0.8,1.8,2471.096,13.29,0.02,275.7
2022-04-05T11:31:03,42.805,6.029,-0.029,-0.013,-0.022,104.0,111.0,114.0,13.3,1505.2,324.4,-0.8,1.8,2471.179,13.29,0.031,245.9
2022-04-05T11:34:03,42.805,6.029,0.0,0.007,-0.008,109.0,109.0,110.0,13.3,1505.2,328.9,-0.7,1.8,2471.197,13.29,0.007,0.0
2022-04-05T11:37:03,42.805,6.029,-0.02,-0.006,0.027,108.0,109.0,107.0,13.4,1505.2,330.1,-0.8,1.8,2471.164,13.29,0.02,253.3
2022-04-05T11:40:03,42.805,6.029,-0.021,0.0,0.015,110.0,104.0,106.0,13.3,1505.2,327.0,-0.7,1.8,2471.241,13.29,0.021,270.0
2022-04-05T11:43:03,42.805,6.029,-0.019,-0.009,-0.016,107.0,102.0,104.0,13.4,1505.2,331.4,-0.8,1.8,2471.252,13.29,0.021,244.7
2022-04-05T11:46:03,42.805,6.029,0.006,-0.007,0.001,108.0,102.0,102.0,13.4,1505.2,324.8,-0.8,1.8,2471.198,13.29,0.009,139.4
2022-04-05T11:49:03,42.805,6.029,-0.024,-0.019,-0.039,104.0,103.0,102.0,13.3,1505.2,324.5,-0.8,1.8,2471.189,13.29,0.03,231.6
2022-04-05T11:52:03,42.805,6.029,-0.008,-0.023,-0.013,103.0,104.0,101.0,13.3,1505.2,324.5,-0.8,1.8,2471.257,13.29,0.024,199.2
2022-04-05T11:55:03,42.805,6.029,-0.03,-0.018,-0.031,104.0,102.0,102.0,13.4,1505.2,323.5,-0.8,1.8,2471.288,13.29,0.034,239.0
2022-04-05T11:58:03,42.805,6.029,-0.017,-0.012,0.028,105.0,104.0,102.0,13.4,1505.2,327.6,-0.7,1.8,2471.354,13.29,0.02,234.8
2022-04-05T12:04:03,42.805,6.029,-0.008,-0.004,-0.011,106.0,103.0,103.0,13.4,1505.2,325.0,-0.8,1.8,2471.462,13.29,0.008,243.4
2022-04-05T12:07:03,42.805,6.029,-0.018,-0.009,0.0,107.0,103.0,103.0,13.4,1505.2,327.2,-0.7,1.8,2471.443,13.29,0.02,243.4
2022-04-05T12:10:03,42.805,6.029,-0.039,-0.023,-0.011,102.0,101.0,104.0,13.4,1505.2,323.7,-0.8,1.8,2471.472,13.29,0.045,239.5
2022-04-05T12:13:03,42.805,6.029,-0.03,0.006,0.004,102.0,104.0,104.0,13.4,1505.2,329.9,-0.8,1.8,2471.476,13.29,0.03,281.3
2022-04-05T12:16:03,42.805,6.029,-0.008,-0.019,-0.007,102.0,103.0,102.0,13.4,1505.2,330.6,-0.8,1.8,2471.448,13.29,0.02,202.8
2022-04-05T12:19:03,42.805,6.029,-0.019,-0.009,0.007,103.0,104.0,104.0,13.4,1505.2,332.2,-0.7,1.8,2471.402,13.29,0.021,244.7
2022-04-05T12:22:03,42.805,6.029,-0.006,-0.006,0.005,104.0,103.0,103.0,13.4,1505.2,323.7,-0.8,1.8,2471.365,13.29,0.008,225.0
2022-04-05T12:25:03,42.805,6.029,-0.017,-0.029,-0.019,104.0,104.0,103.0,13.3,1505.2,331.2,-0.7,1.8,2471.341,13.29,0.033,210.4
2022-04-05T12:28:03,42.805,6.029,-0.031,-0.016,0.008,105.0,106.0,102.0,13.3,1505.2,328.2,-0.7,1.8,2471.362,13.29,0.034,242.7
2022-04-05T12:31:03,42.805,6.029,-0.02,-0.004,0.015,107.0,102.0,104.0,13.4,1505.2,332.3,-0.8,1.8,2471.418,13.29,0.02,258.7
2022-04-05T12:34:03,42.805,6.029,-0.003,-0.024,-0.005,104.0,102.0,103.0,13.4,1505.2,331.8,-0.8,1.8,2471.282,13.29,0.024,187.1
2022-04-05T12:37:03,42.805,6.029,-0.01,0.018,0.008,107.0,103.0,100.0,13.4,1505.2,329.9,-0.8,1.8,2470.925,13.29,0.02,330.9
2022-04-05T12:40:03,42.805,6.029,-0.02,0.0,-0.013,103.0,101.0,102.0,13.3,1505.2,327.1,-0.8,1.8,2470.941,13.29,0.02,270.0
2022-04-05T12:43:03,42.805,6.029,0.005,-0.007,0.002,101.0,103.0,101.0,13.4,1505.2,327.1,-0.7,1.8,2470.873,13.29,0.008,144.5
2022-04-05T12:46:03,42.805,6.029,-0.022,-0.018,0.017,103.0,103.0,100.0,13.3,1505.2,326.7,-0.7,1.8,2470.863,13.29,0.028,230.7
2022-04-05T12:49:03,42.805,6.029,-0.008,-0.003,0.006,105.0,103.0,100.0,13.3,1505.2,332.0,-0.7,1.8,2470.87,13.29,0.008,249.4
2022-04-05T12:52:03,42.805,6.029,-0.03,0.002,-0.006,104.0,102.0,101.0,13.4,1505.2,323.5,-0.7,1.8,2470.937,13.29,0.03,273.8
2022-04-05T12:55:03,42.805,6.029,-0.023,-0.03,-0.023,104.0,101.0,102.0,13.4,1505.2,328.6,-0.8,1.8,2470.954,13.29,0.037,217.5
2022-04-05T12:58:03,42.805,6.029,-0.012,-0.018,-0.01,105.0,103.0,101.0,13.4,1505.2,325.1,-0.8,1.8,2470.887,13.29,0.021,213.7
2022-04-05T13:04:03,42.805,6.029,-0.016,-0.01,0.001,105.0,102.0,100.0,13.3,1505.2,324.8,-0.7,1.8,2470.518,13.29,0.018,238.0
2022-04-05T13:07:03,42.805,6.029,-0.005,-0.026,-0.006,103.0,102.0,100.0,13.4,1505.2,326.2,-0.8,1.8,2470.39,13.29,0.026,190.9
2022-04-05T13:10:03,42.805,6.029,0.033,-0.029,-0.027,101.0,102.0,102.0,13.4,1505.2,326.9,-0.7,1.8,2470.213,13.29,0.043,131.3
2022-04-05T13:13:03,42.805,6.029,-0.038,-0.013,-0.026,102.0,102.0,100.0,13.3,1505.2,324.9,-0.7,1.8,2470.199,13.29,0.04,251.1
2022-04-05T13:16:03,42.805,6.029,0.004,-0.005,0.005,100.0,101.0,100.0,13.4,1505.2,329.7,-0.8,1.8,2470.229,13.29,0.006,141.3
2022-04-05T13:19:03,42.805,6.029,-0.01,-0.006,-0.018,101.0,102.0,100.0,13.3,1505.2,323.4,-0.8,1.8,2470.182,13.29,0.011,239.0
2022-04-05T13:22:03,42.805,6.029,-0.016,-0.026,-0.002,102.0,101.0,101.0,13.4,1505.2,322.8,-0.7,1.8,2470.28,13.29,0.03,211.6
2022-04-05T13:25:03,42.805,6.029,-0.028,0.006,0.025,102.0,101.0,102.0,13.4,1505.2,324.6,-0.8,1.8,2470.288,13.29,0.028,282.1
2022-04-05T13:28:03,42.805,6.029,-0.014,-0.002,-0.007,102.0,101.0,101.0,13.4,1505.2,323.2,-0.7,1.9,2470.336,13.29,0.014,261.9
2022-04-05T13:31:03,42.805,6.029,-0.026,-0.008,-0.027,101.0,101.0,101.0,13.3,1505.2,324.6,-0.7,1.8,2470.343,13.29,0.027,252.9
2022-04-05T13:34:03,42.805,6.029,-0.024,-0.009,-0.011,104.0,102.0,100.0,13.3,1505.2,327.9,-0.7,1.8,2470.316,13.29,0.025,249.4
2022-04-05T13:37:03,42.805,6.029,-0.014,0.01,0.014,101.0,103.0,100.0,13.4,1505.2,330.5,-0.8,1.8,2470.38,13.29,0.017,305.5
2022-04-05T13:40:03,42.805,6.029,-0.017,-0.014,0.02,102.0,101.0,100.0,13.3,1505.2,327.0,-0.7,1.8,2470.383,13.29,0.022,230.5
2022-04-05T13:43:03,42.805,6.029,-0.022,-0.005,0.02,102.0,102.0,100.0,13.3,1505.2,324.1,-0.8,1.8,2470.369,13.29,0.022,257.2
2022-04-05T13:46:03,42.805,6.029,-0.014,-0.005,0.004,102.0,101.0,101.0,13.4,1505.2,330.3,-0.7,1.8,2470.395,13.29,0.014,250.4
2022-04-05T13:49:03,42.805,6.029,-0.019,-0.014,0.023,103.0,102.0,100.0,13.4,1505.2,329.7,-0.8,1.8,2470.43,13.29,0.023,233.6
2022-04-05T13:52:03,42.805,6.029,-0.021,-0.015,0.015,102.0,102.0,101.0,13.4,1505.2,327.9,-0.8,1.8,2470.421,13.29,0.025,234.5
2022-04-05T13:55:03,42.805,6.029,-0.017,-0.002,-0.008,101.0,101.0,102.0,13.3,1505.2,329.6,-0.7,1.8,2470.446,13.29,0.017,263.3
2022-04-05T13:58:03,42.805,6.029,-0.02,-0.019,-0.011,102.0,103.0,101.0,13.3,1505.2,329.7,-0.8,1.8,2470.487,13.29,0.027,226.5
2022-04-05T14:04:03,42.805,6.029,-0.011,0.015,0.016,99.0,101.0,102.0,13.4,1505.2,331.6,-0.8,1.8,2470.502,13.29,0.018,323.7
2022-04-05T14:07:03,42.805,6.029,-0.034,0.0,-0.019,102.0,102.0,101.0,13.3,1505.2,326.2,-0.8,1.8,2470.48,13.29,0.034,270.0
2022-04-05T14:10:03,42.805,6.029,-0.013,0.0,0.026,102.0,102.0,101.0,13.3,1505.2,324.7,-0.8,1.8,2470.521,13.29,0.013,270.0
2022-04-05T14:13:03,42.805,6.029,-0.008,-0.01,0.006,103.0,101.0,100.0,13.3,1505.2,326.8,-0.8,1.8,2470.502,13.29,0.012,218.7
2022-04-05T14:16:03,42.805,6.029,-0.022,0.003,0.016,102.0,102.0,101.0,13.3,1505.2,325.7,-0.7,1.9,2470.548,13.29,0.022,277.8
2022-04-05T14:19:03,42.805,6.029,-0.027,0.006,-0.04,102.0,102.0,102.0,13.4,1505.2,332.9,-0.8,1.9,2470.503,13.29,0.027,282.5
2022-04-05T14:22:03,42.805,6.029,-0.003,0.0,0.01,102.0,102.0,101.0,13.4,1505.2,324.3,-0.7,1.8,2470.542,13.29,0.003,270.0
2022-04-05T14:25:03,42.805,6.029,0.009,-0.008,0.005,103.0,100.0,101.0,13.4,1505.2,330.2,-0.7,1.9,2470.557,13.29,0.012,131.6
2022-04-05T14:28:03,42.805,6.029,-0.033,0.007,0.014,104.0,101.0,103.0,13.4,1505.2,329.9,-0.8,1.8,2470.56,13.29,0.033,282.0
2022-04-05T14:31:03,42.805,6.029,-0.014,-0.012,0.014,102.0,102.0,101.0,13.3,1505.2,332.0,-0.7,1.8,2470.564,13.29,0.018,229.4
2022-04-05T14:34:03,42.805,6.029,-0.012,-0.01,0.009,102.0,103.0,101.0,13.3,1505.2,323.2,-0.7,1.8,2470.606,13.29,0.015,230.2
2022-04-05T14:37:03,42.805,6.029,0.0,-0.013,0.0,101.0,103.0,101.0,13.3,1505.2,325.1,-0.8,1.8,2470.566,13.29,0.013,180.0
2022-04-05T14:40:03,42.805,6.029,-0.016,-0.006,0.014,102.0,102.0,102.0,13.4,1505.2,332.9,-0.8,1.8,2470.575,13.29,0.017,249.4
2022-04-05T14:43:03,42.805,6.029,-0.02,-0.013,0.01,103.0,100.0,101.0,13.3,1505.2,324.1,-0.8,1.8,2470.614,13.29,0.023,237.0
2022-04-05T14:46:03,42.805,6.029,-0.016,-0.017,-0.012,103.0,101.0,101.0,13.4,1505.2,332.9,-0.8,1.9,2470.59,13.29,0.023,223.3
2022-04-05T14:49:03,42.805,6.029,-0.023,-0.026,0.013,102.0,103.0,101.0,13.4,1505.2,326.3,-0.7,1.8,2470.6,13.29,0.034,221.5
2022-04-05T14:52:03,42.805,6.029,-0.03,0.004,-0.011,102.0,102.0,100.0,13.4,1505.2,327.8,-0.8,1.8,2470.591,13.29,0.03,277.6
2022-04-05T14:55:03,42.805,6.029,-0.001,-0.001,0.011,102.0,102.0,100.0,13.4,1505.2,327.0,-0.7,1.9,2470.591,13.29,0.001,225.0
2022-04-05T14:58:03,42.805,6.029,-0.014,0.0,0.012,102.0,108.0,100.0,13.4,1505.2,330.9,-0.7,1.8,2470.615,13.29,0.014,270.0
2022-04-05T15:04:03,42.805,6.029,0.002,0.0,0.012,103.0,103.0,101.0,13.4,1505.2,328.5,-0.8,1.8,2470.637,13.29,0.002,90.0
2022-04-05T15:07:03,42.805,6.029,-0.008,0.0,0.006,102.0,103.0,100.0,13.4,1505.2,327.1,-0.8,1.8,2470.594,13.29,0.008,270.0
2022-04-05T15:10:03,42.805,6.029,-0.023,-0.004,0.0,104.0,101.0,101.0,13.4,1505.2,326.8,-0.7,1.8,2470.629,13.29,0.023,260.1
2022-04-05T15:13:03,42.805,6.029,-0.021,-0.001,0.007,102.0,103.0,101.0,13.4,1505.2,329.2,-0.8,1.8,2470.623,13.29,0.021,267.3
2022-04-05T15:16:03,42.805,6.029,0.0,-0.008,0.004,104.0,101.0,102.0,13.4,1505.2,327.9,-0.7,1.8,2470.616,13.29,0.008,180.0
2022-04-05T15:19:03,42.805,6.029,-0.005,-0.009,-0.021,100.0,102.0,102.0,13.4,1505.2,325.6,-0.8,1.8,2470.661,13.29,0.01,209.1
2022-04-05T15:22:03,42.805,6.029,-0.017,0.0,-0.005,101.0,101.0,102.0,13.4,1505.2,327.7,-0.8,1.8,2470.609,13.29,0.017,270.0
2022-04-05T15:25:03,42.805,6.029,0.003,-0.014,0.028,103.0,102.0,101.0,13.4,1505.2,327.3,-0.7,1.8,2470.617,13.29,0.014,167.9
2022-04-05T15:28:03,42.805,6.029,-0.017,-0.003,-0.004,102.0,103.0,102.0,13.3,1505.2,331.3,-0.8,1.8,2470.646,13.29,0.017,260.0
2022-04-05T15:31:03,42.805,6.029,-0.003,0.0,-0.003,101.0,102.0,103.0,13.4,1505.2,328.0,-0.8,1.8,2470.603,13.29,0.003,270.0
2022-04-05T15:34:03,42.805,6.029,-0.004,0.004,-0.024,103.0,101.0,100.0,13.4,1505.2,325.6,-0.8,1.8,2470.638,13.29,0.005,315.0
2022-04-05T15:37:03,42.805,6.029,-0.015,-0.014,0.001,102.0,102.0,100.0,13.3,1505.2,323.2,-0.8,1.8,2470.632,13.29,0.02,227.0
2022-04-05T15:40:03,42.805,6.029,0.012,-0.023,-0.005,102.0,102.0,100.0,13.4,1505.2,327.3,-0.8,1.8,2470.618,13.29,0.025,152.4
2022-04-05T15:43:03,42.805,6.029,0.004,-0.01,0.0,102.0,101.0,105.0,13.3,1505.2,327.8,-0.7,1.8,2470.629,13.3,0.01,158.2
2022-04-05T15:46:03,42.805,6.029,-0.017,-0.017,0.033,102.0,104.0,102.0,13.4,1505.2,326.9,-0.8,1.8,2470.611,13.3,0.024,225.0
2022-04-05T15:49:03,42.805,6.029,-0.003,0.0,0.008,102.0,102.0,101.0,13.4,1505.2,323.9,-0.8,1.9,2470.642,13.3,0.003,270.0
2022-04-05T15:52:03,42.805,6.029,0.002,0.008,0.044,101.0,101.0,102.0,13.4,1505.2,331.8,-0.8,1.8,2470.602,13.3,0.008,14.0
2022-04-05T15:55:03,42.805,6.029,-0.004,0.002,0.005,102.0,101.0,101.0,13.4,1505.2,328.3,-0.7,1.8,2470.595,13.29,0.004,296.6
2022-04-05T15:58:03,42.805,6.029,-0.006,-0.006,0.003,102.0,101.0,101.0,13.4,1505.2,328.2,-0.8,1.8,2470.603,13.3,0.008,225.0
